Regional Weather Roundup
Issued by NWS State College, PA

Home | Current Version | Previous Version | Text Only | Print | Product List | Glossary Off
Versions: 1 2 3 4 5 6 7 8 9 10 11 12 13 14 15 16 17 18 19 20 21 22 23 24 25 26 27 28 29 30 31 32 33 34 35 36 37 38 39 40 41 42 43 44 45 46 47 48 49 50

000
ASUS41 KCTP 110310
RWRCTP

REGIONAL WEATHER ROUNDUP
NATIONAL WEATHER SERVICE STATE COLLEGE PA
1100 PM EDT THU JUL 10 2014

Note: "fair" indicates few or no clouds below 12,000 feet with no
significant weather and/or obstructions to visibility.

* = STATION THAT DOES NOT REPORT PRECIPITATION /E.G. RAIN...SNOW...ETC/
    THUNDER OR FOG.

PAZ002>004-007>009-013>016-020>023-029>032-110400-
WESTERN PENNSYLVANIA

CITY           SKY/WX    TMP DP  RH WIND       PRES   REMARKS
ERIE           CLEAR     63  53  70 CALM      30.18R
MEADVILLE      CLEAR     64  53  67 NE5       30.19S
FRANKLIN*      MOCLDY    63  52  67 NE6       30.20F
NEW CASTLE     NOT AVBL
BEAVER COUNTY  NOT AVBL
BUTLER*        CLEAR     63  55  77 NE5       30.18S
PITTSBURGH INT PTCLDY    72  56  57 E5        30.15R
PITTSBURGH     CLEAR     72  54  53 N3        30.15R
INDIANA*       PTCLDY    64  61  88 CALM      30.20S
LATROBE        PTCLDY    66  63  88 CALM      30.16S
WASHINGTON CO* CLEAR     59  57  94 CALM      30.15S
$$

PAZ004>006-010>012-017>019-024>028-033>037-041-042-045-046-049>053-110400-
CENTRAL PENNSYLVANIA

CITY           SKY/WX    TMP DP  RH WIND       PRES   REMARKS
BRADFORD       CLEAR     59  53  80 CALM      30.22R
DUBOIS         CLEAR     66  56  70 E3        30.19R
CLEARFIELD     MOCLDY    63  62  97 N5        30.19R
JOHNSTOWN      PTCLDY    64  56  75 CALM      30.19S
ALTOONA        CLEAR     64  62  93 CALM      30.18S
STATE COLLEGE  PTCLDY    65  62  91 CALM      30.17S
WILLIAMSPORT   CLEAR     68  60  75 N3        30.14F
SELINSGROVE    PTCLDY    66  64  93 CALM      30.15R
FT INDIANTOWN  MOCLDY    67  67 100 CALM      30.14R
CAPITAL CITY   PTCLDY    67  61  81 SW3       30.15R
HARRISBURG     PTCLDY    69  62  78 N3        30.14R
YORK           PTCLDY    64  63  96 CALM      30.15R
$$

PAZ038>040-043-044-047-048-054-055-060>062-067>071-110400-
EASTERN PENNSYLVANIA

CITY           SKY/WX    TMP DP  RH WIND       PRES   REMARKS
SCRANTON       PTCLDY    67  58  72 E3        30.17S
MOUNT POCONO   MOCLDY    63  59  87 CALM      30.20S
ALLENTOWN      CLOUDY    71  64  78 E6        30.15R
QUAKERTOWN*    CLOUDY    68  64  88 CALM      30.16R
READING        CLOUDY    73  63  70 SE5       30.14R
LANCASTER      MOCLDY    67  66  97 SE7       30.14R
COATESVILLE    RAIN      64  64 100 SE3       30.17F
POTTSTOWN      LGT RAIN  71  63  75 CALM      30.17R
BLUE BELL      MOCLDY    73  64  73 CALM      30.14R
DOYLESTOWN     MOCLDY    69  64  84 CALM      30.14R
WILLOW GROVE   NOT AVBL
NORTH PHILA    MOCLDY    74  62  66 E5        30.15R
PHILADELPHIA   CLOUDY    75  62  64 E7        30.14R
$$


USA.gov is the U.S. government's official web portal to all federal, state and local government web resources and services.